When you browse on this site, cookies collect data to enhance your experience and personalize the content and advertising you see.
Visit our Privacy Policy to learn more. By continuing to use the site, you agree to this use of cookies and data.

Stündliche Wetter Chios

Heute, 15 Juli, Mittwoch

Zeit Temperatur Niederschläge Wind Luftdruck Luftfeuchtigkeit
00:00 +21°C° 0 mm 5 m/S 753 mmHg 74%
01:00 +21°C° 0 mm 5 m/S 753 mmHg 76%
02:00 +20°C° 0 mm 5 m/S 753 mmHg 78%
03:00 +20°C° 0 mm 5 m/S 753 mmHg 79%
04:00 +20°C° 0 mm 6 m/S 753 mmHg 80%
05:00 +19°C° 0 mm 6 m/S 753 mmHg 81%
06:00 +21°C° 0 mm 6 m/S 753 mmHg 74%
07:00 +22°C° 0 mm 6 m/S 754 mmHg 67%
08:00 +24°C° 0 mm 6 m/S 754 mmHg 60%
09:00 +26°C° 0 mm 6 m/S 754 mmHg 56%
10:00 +27°C° 0 mm 6 m/S 754 mmHg 52%
11:00 +28°C° 0 mm 6 m/S 754 mmHg 48%
12:00 +29°C° 0 mm 7 m/S 754 mmHg 46%
13:00 +30°C° 0 mm 7 m/S 754 mmHg 44%
14:00 +31°C° 0 mm 8 m/S 754 mmHg 42%
15:00 +31°C° 0 mm 8 m/S 754 mmHg 43%
16:00 +29°C° 0 mm 8 m/S 754 mmHg 44%
17:00 +29°C° 0 mm 8 m/S 753 mmHg 45%
18:00 +27°C° 0 mm 7 m/S 753 mmHg 51%
19:00 +26°C° 0 mm 7 m/S 754 mmHg 56%
20:00 +23°C° 0 mm 6 m/S 754 mmHg 62%
21:00 +23°C° 0 mm 6 m/S 754 mmHg 62%
22:00 +23°C° 0 mm 5 m/S 754 mmHg 63%
23:00 +22°C° 0 mm 5 m/S 754 mmHg 63%

Morgen, 16 Juli, Donnerstag

Zeit Temperatur Niederschläge Wind Luftdruck Luftfeuchtigkeit
00:00 +22°C° 0 mm 4 m/S 753 mmHg 65%
01:00 +21°C° 0 mm 4 m/S 753 mmHg 66%
02:00 +21°C° 0 mm 4 m/S 753 mmHg 68%
03:00 +21°C° 0 mm 4 m/S 753 mmHg 68%
04:00 +20°C° 0 mm 4 m/S 753 mmHg 68%
05:00 +20°C° 0 mm 4 m/S 752 mmHg 69%
06:00 +22°C° 0 mm 4 m/S 752 mmHg 60%
07:00 +25°C° 0 mm 4 m/S 752 mmHg 51%
08:00 +27°C° 0 mm 5 m/S 753 mmHg 41%
09:00 +28°C° 0 mm 5 m/S 752 mmHg 38%
10:00 +29°C° 0 mm 5 m/S 752 mmHg 34%
11:00 +32°C° 0 mm 6 m/S 752 mmHg 30%
12:00 +32°C° 0 mm 7 m/S 752 mmHg 32%
13:00 +32°C° 0 mm 7 m/S 752 mmHg 34%
14:00 +32°C° 0 mm 8 m/S 752 mmHg 36%
15:00 +31°C° 0 mm 8 m/S 751 mmHg 38%
16:00 +31°C° 0 mm 8 m/S 751 mmHg 40%
17:00 +29°C° 0 mm 8 m/S 751 mmHg 42%
18:00 +28°C° 0 mm 7 m/S 751 mmHg 47%
19:00 +27°C° 0 mm 7 m/S 751 mmHg 51%
20:00 +24°C° 0 mm 6 m/S 751 mmHg 56%
21:00 +24°C° 0 mm 6 m/S 751 mmHg 57%
22:00 +23°C° 0 mm 5 m/S 751 mmHg 58%
23:00 +23°C° 0 mm 5 m/S 751 mmHg 59%

übermorgen, 17 Juli, Freitag

Zeit Temperatur Niederschläge Wind Luftdruck Luftfeuchtigkeit
00:00 +23°C° 0 mm 5 m/S 751 mmHg 60%
01:00 +22°C° 0 mm 4 m/S 751 mmHg 61%
02:00 +22°C° 0 mm 4 m/S 751 mmHg 62%
03:00 +22°C° 0 mm 4 m/S 751 mmHg 63%
04:00 +22°C° 0 mm 4 m/S 751 mmHg 64%
05:00 +21°C° 0 mm 5 m/S 750 mmHg 64%
06:00 +23°C° 0 mm 5 m/S 751 mmHg 58%
07:00 +26°C° 0 mm 6 m/S 751 mmHg 52%
08:00 +27°C° 0 mm 6 m/S 751 mmHg 46%
09:00 +28°C° 0 mm 6 m/S 751 mmHg 44%
10:00 +29°C° 0 mm 7 m/S 751 mmHg 41%
11:00 +30°C° 0 mm 7 m/S 751 mmHg 38%
12:00 +32°C° 0 mm 7 m/S 750 mmHg 38%
13:00 +32°C° 0 mm 8 m/S 750 mmHg 38%
14:00 +33°C° 0 mm 8 m/S 750 mmHg 38%
15:00 +33°C° 0 mm 8 m/S 750 mmHg 39%
16:00 +32°C° 0 mm 8 m/S 749 mmHg 40%
17:00 +32°C° 0 mm 7 m/S 749 mmHg 41%
18:00 +30°C° 0 mm 7 m/S 749 mmHg 46%
19:00 +28°C° 0 mm 7 m/S 749 mmHg 52%
20:00 +27°C° 0 mm 6 m/S 749 mmHg 57%
21:00 +26°C° 0 mm 6 m/S 749 mmHg 60%
22:00 +24°C° 0 mm 6 m/S 750 mmHg 63%
23:00 +24°C° 0 mm 6 m/S 750 mmHg 65%

18 Juli, Samstag

Zeit Temperatur Niederschläge Wind Luftdruck Luftfeuchtigkeit
00:00 +23°C° 0 mm 5 m/S 750 mmHg 68%
01:00 +23°C° 0 mm 5 m/S 750 mmHg 70%
02:00 +22°C° 0 mm 5 m/S 750 mmHg 73%
03:00 +22°C° 0 mm 5 m/S 749 mmHg 73%
04:00 +22°C° 0 mm 5 m/S 749 mmHg 73%
05:00 +21°C° 0 mm 5 m/S 749 mmHg 73%
06:00 +23°C° 0 mm 5 m/S 749 mmHg 67%
07:00 +26°C° 0 mm 4 m/S 750 mmHg 61%
08:00 +27°C° 0 mm 4 m/S 750 mmHg 55%
09:00 +29°C° 0 mm 4 m/S 750 mmHg 52%
10:00 +30°C° 0 mm 4 m/S 750 mmHg 48%
11:00 +32°C° 0 mm 5 m/S 750 mmHg 44%
12:00 +33°C° 0 mm 5 m/S 750 mmHg 45%
13:00 +33°C° 0 mm 5 m/S 750 mmHg 45%
14:00 +33°C° 0 mm 5 m/S 750 mmHg 46%
15:00 +32°C° 0 mm 5 m/S 750 mmHg 49%
16:00 +32°C° 0 mm 5 m/S 749 mmHg 52%
17:00 +30°C° 0 mm 5 m/S 749 mmHg 54%
18:00 +28°C° 0 mm 4 m/S 749 mmHg 62%
19:00 +27°C° 0 mm 4 m/S 749 mmHg 69%
20:00 +25°C° 0 mm 4 m/S 750 mmHg 76%
21:00 +25°C° 0 mm 4 m/S 750 mmHg 77%
22:00 +24°C° 0 mm 3 m/S 750 mmHg 78%
23:00 +24°C° 0 mm 3 m/S 750 mmHg 79%

19 Juli, Sonntag

Zeit Temperatur Niederschläge Wind Luftdruck Luftfeuchtigkeit
00:00 +24°C° 0 mm 3 m/S 750 mmHg 80%
01:00 +24°C° 0 mm 3 m/S 750 mmHg 82%
02:00 +22°C° 0 mm 3 m/S 750 mmHg 84%
03:00 +23°C° 0 mm 2 m/S 750 mmHg 85%
04:00 +23°C° 0 mm 2 m/S 750 mmHg 86%
05:00 +23°C° 0 mm 2 m/S 750 mmHg 87%
06:00 +25°C° 0 mm 2 m/S 751 mmHg 78%
07:00 +27°C° 0 mm 2 m/S 751 mmHg 69%
08:00 +29°C° 0 mm 2 m/S 751 mmHg 60%
09:00 +30°C° 0 mm 2 m/S 751 mmHg 56%
10:00 +31°C° 0 mm 2 m/S 752 mmHg 52%
11:00 +33°C° 0 mm 3 m/S 752 mmHg 48%
12:00 +33°C° 0 mm 4 m/S 752 mmHg 49%
13:00 +33°C° 0 mm 5 m/S 752 mmHg 50%
14:00 +33°C° 0 mm 6 m/S 752 mmHg 51%
15:00 +32°C° 0 mm 6 m/S 751 mmHg 53%
16:00 +32°C° 0 mm 6 m/S 751 mmHg 56%
17:00 +30°C° 0 mm 6 m/S 751 mmHg 58%
18:00 +28°C° 0 mm 5 m/S 751 mmHg 63%
19:00 +27°C° 0 mm 5 m/S 751 mmHg 69%
20:00 +26°C° 0 mm 4 m/S 751 mmHg 74%
21:00 +25°C° 0 mm 4 m/S 751 mmHg 74%
22:00 +25°C° 0 mm 4 m/S 752 mmHg 74%
23:00 +25°C° 0 mm 4 m/S 752 mmHg 74%

20 Juli, Montag

Zeit Temperatur Niederschläge Wind Luftdruck Luftfeuchtigkeit
00:00 +25°C° 0 mm 4 m/S 752 mmHg 75%
01:00 +25°C° 0 mm 4 m/S 751 mmHg 76%
02:00 +25°C° 0 mm 4 m/S 751 mmHg 77%
03:00 +25°C° 0 mm 4 m/S 751 mmHg 75%
04:00 +25°C° 0 mm 4 m/S 751 mmHg 74%
05:00 +25°C° 0 mm 4 m/S 751 mmHg 72%
06:00 +27°C° 0 mm 5 m/S 751 mmHg 63%
07:00 +29°C° 0 mm 5 m/S 751 mmHg 54%
08:00 +32°C° 0 mm 6 m/S 751 mmHg 45%
09:00 +32°C° 0 mm 6 m/S 751 mmHg 43%
10:00 +33°C° 0 mm 6 m/S 751 mmHg 40%
11:00 +34°C° 0 mm 6 m/S 751 mmHg 37%
12:00 +34°C° 0 mm 6 m/S 751 mmHg 37%
13:00 +35°C° 0 mm 6 m/S 751 mmHg 37%
14:00 +35°C° 0 mm 7 m/S 751 mmHg 37%
15:00 +35°C° 0 mm 7 m/S 751 mmHg 39%
16:00 +34°C° 0 mm 8 m/S 751 mmHg 41%
17:00 +34°C° 0 mm 8 m/S 750 mmHg 42%
18:00 +32°C° 0 mm 8 m/S 750 mmHg 47%
19:00 +31°C° 0 mm 8 m/S 750 mmHg 52%
20:00 +28°C° 0 mm 7 m/S 751 mmHg 57%
21:00 +28°C° 0 mm 7 m/S 751 mmHg 61%
22:00 +27°C° 0 mm 6 m/S 751 mmHg 64%
23:00 +26°C° 0 mm 6 m/S 751 mmHg 68%
Mehr zeigen